Location: Pitton
(51.0667°N, 1.7000°W)
Time: 12:28:48
(UTC+00:00)

Cosmos 1943 - Pass Details

Date: 17 September 2019
Orbit: 833 x 851 km, 71.0° (Epoch: 21 October)

Event Time Altitude Azimuth Distance (km) Brightness Sun altitude
Rises 21:28:07 0° 331° (NNW) 3,428 7.5 -27.7°
Reaches altitude 10° 21:30:39 10° 336° (NNW) 2,488 6.5 -27.9°
Enters shadow 21:35:56 51° 42° (NE) 1,059 3.6 -28.5°
